STARLINK-32727 (62828 NORAD) Tracking and Keplerian Element Data

This shows tracking and keplerian element data for the satellite.

Feedback or suggestion? Click here.




ElementValue
Catalog62828
NameSTARLINK-32727
Epoch Orbit295
Epoch Day35.25001157
Epoch Year2025
RAAN11.4309
Inclination53.1471
Eccentricity0.0001034
Argument of Perigee100.8768
Mean Anonmoly109.5335
Mean Motion15.86123355
Decay Rate-0.0112869
L11 62828U 25018Y 25035.25001157 -.01128690 00000+0 -50670-2 0 9996
L22 62828 53.1471 11.4309 0001034 100.8768 109.5335 15.86123355 2956



Live tracking and technical data element details for STARLINK-32727 (NORAD 62828). STARLINK-32727 can be tracked NOW for your location showing map with azimuth and elevation plus other details from your city location.







IsCatalogInMostPopularTable: catalog: 62828, numindb: 3
Update: records affected: 1



GetName: 62828 STARLINK-32727

Hit Count: updated at: Sun, 09 Feb 2025 13:54:50 GMT